Flag for Jordan Weather past 2 weeks in Zarqa, Jordan

Now
73 °F

Haze.


Feels Like: 77 °F
Forecast: 64 / 91 °F
Wind: 5 mph from Northwest

Location: Amman Airport

Current Time: Aug 29, 2015 at 2:05:18 AM

Latest Report: Aug 29, 2015 at 1:00 AM


Visibility: 4 mi

Pressure: 30.01 "Hg (27.95 "Hg at 615m altitude)

Humidity: 41%

Dew point: 48 °F

Location of ZarqaLocation

Historic Weather in Zarqa — Graph

°F

Zarqa temperature yesterday

Maximum temperature yesterday: 88 °F (at 1:00 PM)
Minimum temperature yesterday: 70 °F (at 3:00 AM)
Average temperature yesterday: 79 °F

Past Weeks' High & Low Weather Summary

 TemperatureHumidityPressure
High102 °F (Aug 17, 2:00 PM)88% (Aug 22, 7:00 AM)30.01 "Hg (Aug 22, 7:00 AM)
Low68 °F (Aug 23, 6:00 AM)3% (Aug 20, 12:00 PM)29.83 "Hg (Aug 22, 4:00 PM)
Average82 °F41%29.90 "Hg
* Reported Midnight between Aug 13 and Aug 14 — Midnight between Aug 28 and Aug 29, Zarqa, Weather by CustomWeather, © 2015

Note: Actual official high and low records may vary slightly from our data, if they occured in-between our weather recording intervals... More about our weather records

Advertising

Zarqa weather history for previous 24 hours

 ConditionsComfort  
Time TempWeatherWind HumidityBarometerVisibility
12:00 AM
Sat, Aug 29
75 °FHaze.3 mph36%30.01 "Hg4 mi
11:00 PM
Fri, Aug 28
79 °FHaze.3 mph42%29.98 "Hg4 mi
10:00 PM79 °FHaze.3 mph42%29.98 "Hg4 mi
9:00 PM79 °FHaze.3 mph42%29.98 "Hg4 mi
8:00 PM81 °FClear.5 mph39%29.98 "Hg4 mi
7:00 PM84 °FHaze.13 mph33%29.98 "Hg3 mi
6:00 PM84 °FHaze.13 mph31%29.98 "Hg2 mi
5:00 PM84 °FClear.5 mph35%29.98 "Hg4 mi
4:00 PM84 °FPassing clouds.9 mph31%29.98 "Hg4 mi
3:00 PM86 °FPassing clouds.9 mph31%29.98 "Hg4 mi
2:00 PM88 °FPassing clouds.6 mph27%30.01 "Hg4 mi
1:00 PM88 °FHaze.5 mph24%30.01 "Hg3 mi
12:00 PM86 °FHaze.6 mph27%30.01 "Hg3 mi
11:00 AM84 °FHaze.No wind22%29.98 "Hg3 mi
10:00 AM81 °FHaze.No wind26%29.98 "Hg3 mi
9:00 AM77 °FHaze.No wind34%29.98 "Hg3 mi
8:00 AM75 °FHaze.No wind39%29.98 "Hg3 mi
7:00 AM72 °FHaze.No wind38%29.95 "Hg3 mi
6:00 AM72 °FHaze.No wind38%29.95 "Hg2 mi
5:00 AM70 °FHaze.No wind50%29.95 "Hg3 mi
4:00 AM70 °FHaze.No wind50%29.95 "Hg3 mi
3:00 AM70 °FHaze.No wind57%29.95 "Hg3 mi
Weather by CustomWeather, © 2015

See weather overviewHow to use our weather pages